STARLINK-1680, 46558

Orbit data source: Space-Track

STARLINK-1680, 46558 is a payload satellite owned by SpaceX/Seattle (US) in LEO that was launched on Tue, 06 Oct 2020 UTC via an FALCON 9 launch vehicle from the Air Force Eastern Test Range (AFETR). Payloads include a variety of satellites, spacecraft, and rockets equipped with specific instruments for various scientific and technological missions. These include communications satellites like Starlink; space stations such as the ISS; scientific satellites like the Hubble; Earth observation satellites from companies like Planet Labs, Umbra, and HawkEye 360; GPS; miniature CubeSats for education and research; and military/defense satellites.

Loading next visibility...
STARLINK-1680 details
Identifier
46558, 2020-070AC
Orbit
LEO
Last TLE update7 hours ago
Origin
Flag of USSpaceX/Seattle (US)
ManufacturerSpaceX/Seattle
MissionOperational Commercial Communications
Bus & MotorSTARLINK, Unknown motor
Mass260 kg wet, ~248 kg dry
Launch date (UTC)
2020-10-06 (4 years ago)
Launch vehicle
FALCON 9
Launch site
Air Force Eastern Test Range (AFETR)
Object type
Payload
Rocket body
Debris
Shape & HBRBox + 1 Pan, 8.86 m
Radar Cross Section13.562 m², Large (>1 m²)

Expand to show TLE details & history

TLE from 7 hours ago
0 STARLINK-1680
1 46558U 20070AC  24361.11180436  .00021260  00000-0  14406-2 0  9995
2 46558  53.0550 330.4660 0001387  99.8289 260.2856 15.06431750233621
Epoch: 2024-12-26T02:40Z
Definitive object data (Epoch: 2024-12-26T02:40:59.896Z)
Latitude-0.00009°
Longitude-164.87951°
Altitude548.156 km
Speed7.589 km/s
True Right ascension22h 01m 51s
True Declination0° 00' 00"
Sunlit
Object was in daylight at TLE epoch
Visualization TLE readout
Latitude-47.71604°
Longitude69.05365°
Altitude564.207 km
Speed7.578 km/s
Apparent Right ascension17h 42m 30s
Apparent Declination-61° 46' 06"
Sunlit
Object is in daylight
Visualization observer readout
Local Sidereal Time09:29:53
Azimuth142.156° SSE
Elevation-49.796°
Doppler factor1
Orbital elements
Apogee altitude548.345 km
Perigee altitude546.424 km
Semi-major axis6,925.522 km
Eccentricity0.0001387
Inclination53.055°
RAAN330.466°
Arg. of periapsis99.8289°
True anomaly260.26993°
Mean anomaly260.2856°
Eccentric anomaly260.27777°
Mean motion3.76586 °/min
BSTAR0.0014406
Orbital period95.6 mins
Loading maneuver chart data...
Loading historical data...
Loading historical data...
Loading historical data...
Loading historical data...
Loading historical data...
Loading historical data...
Loading historical data...

STARLINK-1680 Visibility forecast

Observer location: undefined°, undefined

Span
Click to sort rows by Start time (UTC) header in descending order
Start Az.
Max El. time (UTC)
Max El. Az.
Max El.
End time (UTC)
End Az.
5 mins2024-12-26 23:31:45.678Z164.433° S2024-12-26 23:33:45.678Z134.15° SE15.81°2024-12-26 23:36:45.678Z86.903° E
6 mins2024-12-27 01:10:45.678Z243.676° WSW2024-12-27 01:13:45.678Z5.138° NNE40.874°2024-12-27 01:16:45.678Z44.58° NE
4 mins2024-12-27 02:51:45.678Z312.079° NW2024-12-27 02:53:45.678Z348.419° N17.337°2024-12-27 02:55:45.678Z20.716° NNE
5 mins2024-12-27 06:12:45.678Z341.117° N2024-12-27 06:14:45.678Z19.606° NNE22.425°2024-12-27 06:17:45.678Z75.183° E
7 mins2024-12-27 07:51:45.678Z302.944° NW2024-12-27 07:54:45.678Z226.093° WSW42.764°2024-12-27 07:58:45.678Z140.567° SSE
|